Location: Invercargill
(46.4000°S, 168.3500°E)
Time: 12:54:08
(UTC+13:00)

Daily predictions for brighter satellites

Satellite Brightness Start Highest point End
(mag) Time Altitude Azimuth Time Altitude Azimuth Time Altitude Azimuth
Cosmos 2315 Rocket 4.2 21:57:16 10° S 22:03:40 65° ESE 22:09:55 10° NNE
SPOT 3 Rocket 3.6 21:58:45 10° SSE 22:04:01 70° ENE 22:09:12 10° N
CZ-4C R/B 4.1 22:01:35 10° SSW 22:06:26 23° SSE 22:10:45 10° ESE
H-2A R/B 4.3 22:11:20 10° NNE 22:12:59 11° NE 22:15:13 10° ENE
Cosmos 1633 Rocket 3.6 22:09:33 10° SSW 22:13:57 62° W 22:18:17 10° N
FREGAT/IRIS 4.1 22:11:12 10° S 22:14:03 40° WSW 22:16:52 10° NW
Cosmos 540 Rocket 4.3 22:09:19 10° S 22:14:14 38° ESE 22:19:05 10° NE
YAOGAN 6 4.3 22:13:19 10° S 22:16:49 39° WSW 22:20:12 10° NW
Cosmos 1862 3.4 22:22:44 10° S 22:26:50 66° E 22:30:50 10° NNE
BREEZE-M DEB (TANK) 2.5 22:23:12 10° NW 22:27:31 36° NNE 22:29:41 10° E
Cosmos 1763 Rocket 3.6 22:23:27 10° SSW 22:28:46 78° WNW 22:33:56 10° NNE
Elektron 1 4.2 22:23:59 10° NW 22:28:53 85° NE 22:31:57 10° SE
Atlas Centaur 2 4.1 22:24:25 10° NW 22:30:52 25° N 22:36:40 12° NE
SJ-6B 3.1 22:28:51 10° S 22:32:40 70° WSW 22:36:27 10° NNW
ERBS 3.2 22:30:33 10° SW 22:33:58 45° SSE 22:37:00 12° ENE
Cosmos 724 4.2 22:31:20 10° NNW 22:37:13 73° ENE 22:43:02 10° SE
Meteor 2-13 Rocket 4.5 22:31:18 10° N 22:37:19 67° E 22:43:26 10° SSE
H-2A R/B 2.6 22:36:37 10° SSE 22:41:20 37° E 22:45:38 11° NNE
Cosmos 1328 Rocket 4.5 22:37:17 10° NNW 22:41:40 52° WSW 22:46:07 10° S
Cosmos 1486 Rocket 4.4 22:38:49 10° N 22:43:43 42° ENE 22:48:42 10° SE
SL-16 R/B 2.2 22:40:33 10° NNW 22:46:15 87° ENE 22:52:01 10° SSE
Cosmos 1470 Rocket 4.4 22:42:59 10° SSW 22:47:22 51° W 22:51:43 10° N
Cosmos 1933 Rocket 3.9 22:43:06 10° SSW 22:47:32 65° W 22:51:52 10° N
Mayak 0.5 22:46:27 13° ENE 22:48:55 20° ESE 22:52:01 10° SSE
Cosmos 2360 Rocket 2.6 22:46:30 10° N 22:51:51 43° ENE 22:57:15 10° SE
Lacrosse 5 rocket 3.4 22:49:11 10° SW 22:52:01 20° SSE 22:54:49 10° ESE
Cosmos 1980 Rocket 4.3 22:50:53 10° WNW 22:55:57 32° SW 23:01:03 10° SSE
Lacrosse 5 3.8 22:52:57 10° WSW 22:56:43 21° WNW 23:00:26 10° N
Cosmos 2228 Rocket 3.5 22:53:08 10° NNW 22:57:33 67° W 23:02:03 10° S
Cosmos 1242 Rocket 2.9 22:53:57 10° SSW 22:57:43 69° W 23:00:53 14° N
Cosmos 1707 Rocket 4.4 22:55:32 19° NE 22:57:57 32° E 23:01:52 10° SSE
USA 186 3.9 22:55:33 10° SSW 22:58:04 25° WSW 23:00:26 10° NW
Cosmos 1844 Rocket 3.4 22:53:16 10° SSW 22:58:39 42° SE 23:02:38 17° ENE
Cosmos 841 Rocket 3.8 22:54:17 10° SSW 22:59:36 66° WNW 23:04:13 13° N
Cosmos 1933 3.4 22:58:17 13° N 23:01:49 62° E 23:05:58 10° SSE
Helios 1B rocket 2.8 23:00:45 21° NE 23:03:21 53° ESE 23:07:26 10° S
COSMOS 2428 4.0 23:03:03 18° NE 23:04:56 21° E 23:09:09 10° SE
Cosmos 2322 Rocket 2.5 22:59:51 10° NNW 23:05:32 75° WSW 23:11:19 10° SSE
Cosmos 968 Rocket 4.4 23:08:48 21° NE 23:11:04 29° E 23:15:34 10° SE
Cosmos 1745 Rocket 4.1 23:05:15 12° N 23:11:06 63° E 23:17:25 10° SSE
ADEOS Rocket 3.4 23:06:16 10° N 23:11:44 52° W 23:17:11 10° SSW
Terra 3.8 23:14:24 10° ESE 23:16:19 12° E 23:16:50 12° E
Cosmos 1633 2.8 23:13:18 10° SSW 23:16:57 65° W 23:19:15 21° N
Resurs 01 Rocket 2.0 23:13:19 10° S 23:17:49 68° WSW 23:22:14 10° NNW
ARGOS 3.1 23:12:32 10° SSE 23:18:01 81° ENE 23:23:25 10° NNW
Spot 2 Rocket 3.5 23:15:24 10° SSE 23:20:37 76° ENE 23:25:12 13° N
Meteor 1-25 Rocket 4.4 23:16:25 10° S 23:22:18 65° ESE 23:25:57 24° NNE
MetOp-B 4.4 23:17:16 10° SSE 23:22:35 52° E 23:25:59 22° NNE
Cosmos 2322 3.9 23:18:11 14° N 23:22:59 51° ENE 23:28:31 10° SE
Meteor 2-8 Rocket 4.4 23:19:42 10° S 23:25:53 89° E 23:30:14 20° N
Cosmos 2263 Rocket 3.6 23:21:02 10° SW 23:25:58 31° WNW 23:30:54 10° NNW
Cosmos 1606 2.9 23:25:39 30° NNE 23:27:17 54° E 23:31:12 10° SSE
Timation 1 Rocket 4.5 23:21:52 10° SSW 23:27:56 74° WNW 23:31:47 23° NNE
CENTAUR R/B 4.2 23:28:52 18° ENE 23:29:31 18° ENE 23:34:05 10° ESE
Cosmos 2278 Rocket 3.7 23:30:04 10° S 23:34:55 27° SE 23:38:32 15° E
CZ-2C R/B 4.3 23:31:17 10° NNW 23:36:01 29° W 23:40:42 10° SW
Cosmos 2333 Rocket 3.1 23:35:00 26° NE 23:36:31 30° ENE 23:41:29 10° SE
IRAS Rocket 4.4 23:30:58 10° SSE 23:36:33 57° ENE 23:39:47 25° N
Cosmos 2219 Rocket 3.0 23:36:24 27° NE 23:38:03 32° ENE 23:43:05 10° SE
SL-08 RB Rocket 3.8 23:34:28 10° S 23:39:03 74° WSW 23:42:47 15° NNW
SeaSat 1 3.1 23:38:18 10° SE 23:42:53 36° ENE 23:44:00 32° NE
Gbstr 26 Del rocket 3.5 23:40:39 10° WSW 23:44:35 48° SSE 23:46:54 20° E
BREEZE-M DEB (TANK) 3.1 23:40:25 10° WNW 23:46:57 70° SSW 23:49:17 13° ESE
Cosmos 2237 Rocket 3.7 23:51:01 19° E 23:51:09 19° E 23:54:58 10° ESE
Cosmos 1340 Rocket 3.3 23:50:56 38° ENE 23:51:22 40° E 23:55:10 10° SSE
Cosmos 1818 3.5 23:47:57 18° NNW 23:51:56 62° ENE 23:57:17 10° SE
